Location: Home
(42.5358°N, 72.7383°W)
Time: 18:23:40
(UTC-04:00)

Explorer 11/Cluster Stage 4 - Pass Details

Date: 06 August 2024
Orbit: 464 x 1208 km, 28.8° (Epoch: 19 September)

Event Time Altitude Azimuth Distance (km) Brightness Sun altitude
Rises 02:33:02 0° 240° (WSW) 3,843 - -26.9°
Reaches altitude 10° 02:36:06 10° 230° (SW) 2,979 - -26.7°
Maximum altitude 02:42:17 28° 174° (S) 2,048 - -26.1°
Exits shadow 02:44:36 24° 148° (SSE) 2,236 8.6 -25.9°
Drops below altitude 10° 02:48:48 10° 120° (ESE) 3,145 9.6 -25.6°
Sets 02:52:07 0° 109° (ESE) 4,093 10.4 -25.2°
